Tracking 17264 objects as of 29-August-2015
HD Live streaming from Space Station

SL-16 DEB

Track SL-16 DEB now!
10-day predictions
SL-16 DEB is classified as:


NORAD ID: 24303
Int'l Code: 1996-051G
Perigee: 820.8 km
Apogee: 925.9 km
Inclination: 71.1 °
Period: 102.3 minutes
Semi major axis: 7244 km
RCS: 0.4797 m2 (medium)
Launch date: September 4, 1996
Source: Commonwealth of Independent States (former USSR) (CIS)

Note: This is SATELLITE DEBRIS
Your satellite tracking list
Your tracking list is empty





NASA's NSSDC Master Catalog

Two Line Element Set (TLE):
1 24303U 96051G   15240.48605198 +.00000219 +00000-0 +15201-3 0  9990
2 24303 071.1049 260.3855 0072527 238.0899 286.1528 14.08011185975245

Source of the keplerian elements: AFSPC

N2YO: 302